Weather History for KIMT - September, 2013

Change the Weather History Date:

Tuesday, September 17, 2013

  Actual Average Record
Temperature  
Mean Temperature 50 °F -  
Max Temperature 66 °F 66 °F 86 °F (1948)
Min Temperature 33 °F 45 °F 23 °F (1959)
Degree Days  
Heating Degree Days 16    
Moisture  
Dew Point 41 °F    
Average Humidity 82    
Maximum Humidity 100    
Minimum Humidity 48    
Precipitation  
Precipitation 0.00 in - - ()
Sea Level Pressure  
Sea Level Pressure 30.29 in    
Wind  
Wind Speed 3 mph (SSE)    
Max Wind Speed 15 mph    
Max Gust Speed 21 mph    
Visibility 7 miles    
Events Fog    
Averages and records for this station are not official NWS values.
T = Trace of Precipitation, MM = Missing Value Source: NWS Daily Summary

Daily Weather History Graph

Daily Weather History Graph

Search for Another Location

Airport or City:

Trip Planner

Search our weather history database for the weather conditions in past years. The results will help you decide how hot, cold, wet, or windy it might be!

Date:

Astronomy

Sep. 17, 2013 Rise Set
Actual Time 6:33 AM CDT 6:59 PM CDT
Civil Twilight 6:03 AM CDT 7:29 PM CDT
Nautical Twilight 5:28 AM CDT 8:04 PM CDT
Astronomical Twilight 4:51 AM CDT 8:40 PM CDT
Moon 5:48 PM CDT (9/17) 4:23 AM CDT (9/17)
Length of Visible Light 13h 25m
Length of Day
12h 25m
Waxing Gibbous, 96% of the Moon is Illuminated
Sep 17
Waxing Gibbous
Sep 19
Full
Sep 26
Last Quarter
Oct 4
New
Oct 11
First Quarter

Hourly Weather History & Observations

Time (CDT) Temp. Dew Point Humidity Pressure Visibility Wind Dir Wind Speed Gust Speed Precip Events Conditions
12:54 AM 42.1 °F 39.0 °F 89% 30.38 in 10.0 mi Calm Calm - N/A   Clear
1:54 AM 39.9 °F 37.9 °F 93% 30.38 in 10.0 mi Calm Calm - N/A   Clear
2:54 AM 37.9 °F 35.1 °F 89% 30.37 in 10.0 mi Calm Calm - N/A   Clear
3:54 AM 36.0 °F 35.1 °F 97% 30.37 in 3.0 mi Calm Calm - N/A   Clear
4:54 AM 35.1 °F 32.0 °F 89% 30.37 in 10.0 mi Calm Calm - N/A   Clear
5:03 AM 33.8 °F 30.2 °F 87% 30.34 in 4.0 mi Calm Calm - N/A   Scattered Clouds
5:08 AM 35.6 °F 33.8 °F 93% 30.34 in 0.8 mi Calm Calm - N/A   Mist
5:18 AM 35.6 °F 35.6 °F 100% 30.35 in 0.2 mi Calm Calm - N/A Fog Fog
5:47 AM 35.6 °F 33.8 °F 93% 30.34 in 0.8 mi Calm Calm - N/A   Mist
5:54 AM 34.0 °F 33.1 °F 96% 30.37 in 1.0 mi Calm Calm - N/A   Mist
6:09 AM 33.8 °F 33.8 °F 100% 30.35 in 0.2 mi Calm Calm - N/A Fog Fog
6:54 AM 34.0 °F 33.1 °F 96% 30.38 in 0.2 mi Calm Calm - N/A Fog Fog
7:23 AM 35.6 °F 33.8 °F 93% 30.35 in 1.0 mi Calm Calm - N/A   Mist
7:25 AM 35.6 °F 33.8 °F 93% 30.35 in 5.0 mi Calm Calm - N/A   Mostly Cloudy
7:33 AM 35.6 °F 33.8 °F 93% 30.34 in 10.0 mi Calm Calm - N/A   Scattered Clouds
7:45 AM 37.4 °F 37.4 °F 100% 30.34 in 1.0 mi Calm Calm - N/A   Mist
7:52 AM 39.2 °F 37.4 °F 93% 30.34 in 0.5 mi Calm Calm - N/A Fog Fog
7:54 AM 39.0 °F 37.9 °F 96% 30.38 in 0.5 mi Calm Calm - N/A Fog Fog
7:57 AM 39.2 °F 37.4 °F 93% 30.34 in 2.0 mi Calm Calm - N/A   Mostly Cloudy
8:04 AM 39.2 °F 37.4 °F 93% 30.34 in 10.0 mi Calm Calm - N/A   Mostly Cloudy
8:12 AM 41.0 °F 39.2 °F 93% 30.34 in 10.0 mi Calm Calm - N/A   Scattered Clouds
8:54 AM 45.0 °F 42.1 °F 90% 30.37 in 10.0 mi Calm Calm - N/A   Clear
9:54 AM 55.0 °F 46.0 °F 72% 30.35 in 10.0 mi South 10.4 mph - N/A   Scattered Clouds
10:06 AM 57.2 °F 46.4 °F 67% 30.32 in 10.0 mi South 11.5 mph - N/A   Mostly Cloudy
10:20 AM 57.2 °F 46.4 °F 67% 30.31 in 10.0 mi SSW 9.2 mph - N/A   Scattered Clouds
10:54 AM 59.0 °F 45.0 °F 60% 30.32 in 10.0 mi SSW 13.8 mph - N/A   Partly Cloudy
11:54 AM 62.1 °F 44.1 °F 52% 30.30 in 10.0 mi Variable 6.9 mph 17.3 mph N/A   Clear
12:54 PM 64.0 °F 44.1 °F 48% 30.27 in 10.0 mi SSW 12.7 mph - N/A   Clear
1:54 PM 66.0 °F 46.0 °F 48% 30.25 in 10.0 mi South 15.0 mph - N/A   Clear
2:54 PM 66.0 °F 46.9 °F 50% 30.22 in 10.0 mi South 12.7 mph 20.7 mph N/A   Clear
3:54 PM 64.9 °F 46.9 °F 52% 30.20 in 10.0 mi SSE 11.5 mph - N/A   Clear
4:54 PM 64.9 °F 46.9 °F 52% 30.18 in 10.0 mi SE 13.8 mph - N/A   Clear
5:54 PM 63.0 °F 46.9 °F 56% 30.17 in 10.0 mi SSE 12.7 mph - N/A   Clear
6:54 PM 59.0 °F 50.0 °F 72% 30.16 in 10.0 mi SSE 8.1 mph - N/A   Clear
7:54 PM 55.9 °F 51.1 °F 84% 30.16 in 10.0 mi SSE 9.2 mph - N/A   Clear
8:43 PM 55.4 °F 51.8 °F 88% 30.13 in 10.0 mi SSE 6.9 mph - N/A   Mostly Cloudy
8:54 PM 55.0 °F 51.1 °F 86% 30.16 in 10.0 mi SSE 5.8 mph - N/A   Mostly Cloudy
9:10 PM 55.4 °F 51.8 °F 88% 30.13 in 10.0 mi SSE 5.8 mph - N/A   Scattered Clouds
9:54 PM 54.0 °F 51.1 °F 90% 30.14 in 9.0 mi SSE 5.8 mph - N/A   Clear
10:54 PM 54.0 °F 51.1 °F 90% 30.13 in 10.0 mi South 4.6 mph - N/A   Clear
11:54 PM 53.1 °F 51.1 °F 93% 30.11 in 8.0 mi SE 3.5 mph - N/A   Scattered Clouds